Weather in Zorkaltsevo

Russia / Tomsk District     56°31′19″N   84°44′32″E
temp.,
°C
wind,
m/s
gust,
m/s
humid.,
%
clouds,
%
prec.,
mm/h
press.,
hPa
HPBL,
m
20 september, mon
mon2001:00+5wsw38925 0.3 1004453
04:00+3ssw269599 0.0 1005194
07:00+3sw4119298 0.1 1006442
10:00+6wsw587082 0.0 1007933
13:00+7sw6863100 0.2 10071467
16:00+6sw5882100 0.6 10081002
19:00+3wsw51197100 2.1 1009647
22:00+2wsw4897100 0.4 1010632
21 september, tue
tue2101:00+2sw3898100 0.8 1010524
04:00+1sw3897100 0.1 1011554
07:00+1sw4997100 0.2 1011588
10:00+2wsw4998100 0.5 1011572
13:00+3w3898100 2.0 1012811
16:00+4wnw489699 0.4 1014684
19:00+3w3890100 0.6 1015564
22:00+2wsw3895100 0.1 1015388
22 september, wed
wed2201:00+1wsw3896100 0.2 1016359
04:00+1sw3898100 0.1 1015331
07:00+1sw3898100 0.7 1016346
10:00+1sw3798100 0.8 1016356
13:00+2sw3799100 1.3 1016387
16:00+2wsw3798100 0.6 1017346
19:00+2wsw3697100 0.8 1018475
22:00+1wsw2594100 0.1 1018406
23 september, thu
thu2301:00+1wsw2594100 0.1 1019264
04:00+1w2599100 0.1 1019267
07:00+1w379899 0.1 1020429
10:00+2wnw468786 0.1 1021680
13:00+3wnw3477100 0.2 10231041
16:00+2wnw3480100 0.1 1024853
19:00+1w2586100 0.1 1025402
22:00+1wsw2687100 0.0 1026323
24 september, fri
fri2401:00+1wsw2690100 0.0 1026259
04:000wsw2794100 0.1 1026316
07:00−1w369692 0.1 1027306
10:00+1wsw4787100 0.0 1027610
13:00+3wsw5888100 0.1 1026763
16:00+3wsw41197100 0.3 1026608
19:00+3wsw41097100 0.4 1026733
22:00+3wsw41095100 0.4 1025648